| time (UTC) | temp C | wind direction | speed KPH | gust KPH | rain 1hr cm | rain 24hr cm | rain mn cm | humidity % | barometer mb |
| 20260506062002 | 9 | 225 | 6.4 | 0.0 | 0.00 | 0.00 | 0.00 | 85 | 1008.8 |
| 20260506051002 | 10 | 180 | 11.3 | 0.0 | 0.00 | 0.00 | 0.00 | 89 | 1008.8 |
| 20260506043002 | 10 | 225 | 3.2 | 0.0 | 0.00 | 0.00 | 0.00 | 92 | 1008.1 |
| 20260506041501 | 10 | 180 | 4.8 | 0.0 | 0.00 | 0.00 | 0.00 | 92 | 1007.8 |
| 20260506040001 | 10 | 203 | 6.4 | 0.0 | 0.00 | 0.00 | 0.00 | 90 | 1007.5 |
| 20260506035506 | 10 | 203 | 4.8 | 0.0 | 0.00 | 0.00 | 0.10 | 90 | 1007.8 |
| 20260506034007 | 11 | 203 | 6.4 | 0.0 | 0.00 | 0.00 | 0.10 | 89 | 1007.5 |
| 20260506032502 | 11 | 203 | 9.7 | 0.0 | 0.00 | 0.00 | 0.10 | 86 | 1007.1 |
| 20260506031002 | 11 | 180 | 3.2 | 0.0 | 0.00 | 0.00 | 0.10 | 87 | 1007.1 |
| 20260506025502 | 11 | 225 | 11.3 | 0.0 | 0.00 | 0.00 | 0.10 | 84 | 1006.8 |
| 20260506022501 | 12 | 203 | 6.4 | 0.0 | 0.00 | 0.00 | 0.10 | 85 | 1006.8 |
| 20260506021001 | 12 | 225 | 11.3 | 0.0 | 0.00 | 0.00 | 0.10 | 81 | 1006.8 |
| 20260506015501 | 13 | 203 | 6.4 | 0.0 | 0.00 | 0.00 | 0.10 | 78 | 1006.4 |
| 20260506014001 | 13 | 203 | 9.7 | 0.0 | 0.00 | 0.00 | 0.10 | 77 | 1006.4 |
| 20260506012502 | 14 | 225 | 9.7 | 0.0 | 0.00 | 0.00 | 0.10 | 72 | 1006.1 |
| 20260506011002 | 15 | 248 | 8.0 | 0.0 | 0.00 | 0.00 | 0.10 | 69 | 1005.4 |
| 20260506005502 | 16 | 270 | 8.0 | 0.0 | 0.00 | 0.00 | 0.10 | 63 | 1004.7 |
| 20260506004502 | 16 | 203 | 3.2 | 0.0 | 0.00 | 0.00 | 0.10 | 62 | 1004.7 |
| 20260506003001 | 17 | 225 | 3.2 | 0.0 | 0.00 | 0.00 | 0.10 | 60 | 1004.4 |
| 20260506001502 | 17 | 248 | 4.8 | 0.0 | 0.00 | 0.00 | 0.10 | 59 | 1003.7 |
| 20260505235002 | 17 | 225 | 9.7 | 0.0 | 0.00 | 0.00 | 0.10 | 59 | 1003.4 |
| 20260505233502 | 17 | 180 | 8.0 | 0.0 | 0.00 | 0.00 | 0.10 | 59 | 1003.4 |
| 20260505232502 | 18 | 225 | 11.3 | 0.0 | 0.00 | 0.00 | 0.10 | 60 | 1003.0 |
| 20260505231002 | 18 | 225 | 8.0 | 0.0 | 0.00 | 0.00 | 0.10 | 63 | 1003.0 |
| 20260505225502 | 18 | 225 | 4.8 | 0.0 | 0.00 | 0.00 | 0.10 | 68 | 1002.7 |
| 20260505224002 | 18 | 225 | 4.8 | 0.0 | 0.00 | 0.00 | 0.10 | 63 | 1002.4 |
| 20260505223002 | 18 | 180 | 6.4 | 0.0 | 0.00 | 0.00 | 0.10 | 62 | 1002.0 |
| 20260505221501 | 19 | 293 | 8.0 | 0.0 | 0.00 | 0.00 | 0.10 | 62 | 1002.0 |
| 20260505220001 | 20 | 225 | 11.3 | 0.0 | 0.00 | 0.00 | 0.10 | 63 | 1001.4 |
| 20260505214502 | 20 | 270 | 9.7 | 0.0 | 0.00 | 0.00 | 0.10 | 65 | 1001.4 |
| 20260505211502 | 21 | 225 | 4.8 | 0.0 | 0.00 | 0.00 | 0.10 | 63 | 1000.7 |
| 20260505210002 | 21 | 203 | 11.3 | 0.0 | 0.00 | 0.00 | 0.10 | 61 | 1000.3 |
| 20260505204502 | 22 | 203 | 12.9 | 0.0 | 0.00 | 0.00 | 0.10 | 57 | 999.7 |
| 20260505203002 | 22 | 225 | 9.7 | 0.0 | 0.00 | 0.00 | 0.10 | 59 | 999.7 |
| 20260505201502 | 22 | 225 | 12.9 | 0.0 | 0.00 | 0.00 | 0.10 | 63 | 1000.0 |
| 20260505200501 | 21 | 225 | 12.9 | 0.0 | 0.00 | 0.00 | 0.10 | 65 | 1000.0 |
| 20260505195001 | 20 | 203 | 9.7 | 0.0 | 0.00 | 0.00 | 0.10 | 70 | 1000.0 |
| 20260505193502 | 20 | 203 | 16.1 | 0.0 | 0.00 | 0.00 | 0.10 | 71 | 1000.0 |
| 20260505192002 | 20 | 180 | 22.5 | 0.0 | 0.00 | 0.00 | 0.10 | 69 | 999.7 |
| 20260505190502 | 21 | 225 | 8.0 | 0.0 | 0.00 | 0.00 | 0.10 | 64 | 999.3 |
| 20260505185002 | 21 | 203 | 12.9 | 0.0 | 0.00 | 0.00 | 0.10 | 63 | 999.7 |
| 20260505183501 | 21 | 180 | 6.4 | 0.0 | 0.00 | 0.00 | 0.10 | 63 | 1000.0 |
| 20260505182002 | 20 | 203 | 6.4 | 0.0 | 0.00 | 0.00 | 0.10 | 64 | 1000.0 |
| 20260505180502 | 20 | 203 | 12.9 | 0.0 | 0.00 | 0.00 | 0.10 | 66 | 1000.0 |
| 20260505175002 | 19 | 203 | 9.7 | 0.0 | 0.00 | 0.00 | 0.10 | 70 | 999.7 |
| 20260505174002 | 18 | 158 | 8.0 | 0.0 | 0.00 | 0.00 | 0.10 | 73 | 999.7 |
| 20260505171002 | 17 | 180 | 6.4 | 0.0 | 0.08 | 0.00 | 0.10 | 75 | 999.7 |
| 20260505165503 | 17 | 203 | 11.3 | 0.0 | 0.08 | 0.00 | 0.10 | 75 | 999.7 |
| 20260505164502 | 17 | 180 | 4.8 | 0.0 | 0.08 | 0.00 | 0.10 | 78 | 999.7 |
| 20260505161502 | 19 | 203 | 8.0 | 0.0 | 0.00 | 0.00 | 0.03 | 66 | 999.7 |
| 20260505152001 | 18 | 225 | 8.0 | 0.0 | 0.00 | 0.00 | 0.03 | 66 | 1000.0 |
| 20260505124002 | 12 | 113 | 3.2 | 0.0 | 0.03 | 0.00 | 0.03 | 87 | 1002.0 |
| 20260505121002 | 14 | 180 | 12.9 | 0.0 | 0.00 | 0.00 | 0.00 | 72 | 1001.7 |
| 20260505115502 | 15 | 180 | 11.3 | 0.0 | 0.00 | 0.00 | 0.00 | 66 | 1001.4 |
| 20260505114501 | 15 | 203 | 12.9 | 0.0 | 0.00 | 0.00 | 0.00 | 65 | 1001.4 |
| 20260505113001 | 15 | 225 | 6.4 | 0.0 | 0.00 | 0.00 | 0.00 | 66 | 1001.4 |
| 20260505111502 | 15 | 203 | 16.1 | 0.0 | 0.00 | 0.00 | 0.00 | 67 | 1001.0 |
| 20260505101502 | 13 | 180 | 4.8 | 0.0 | 0.00 | 0.00 | 0.00 | 67 | 1000.7 |
| 20260505100002 | 13 | 113 | 12.9 | 0.0 | 0.00 | 0.00 | 0.00 | 68 | 1001.0 |
| 20260505094502 | 13 | 158 | 8.0 | 0.0 | 0.00 | 0.00 | 0.00 | 68 | 1001.0 |
| 20260505093002 | 13 | 203 | 6.4 | 0.0 | 0.00 | 0.00 | 0.00 | 69 | 1001.4 |
| 20260505091502 | 13 | 158 | 8.0 | 0.0 | 0.00 | 0.00 | 0.00 | 69 | 1001.4 |
| 20260505090002 | 13 | 158 | 9.7 | 0.0 | 0.00 | 0.00 | 0.00 | 69 | 1001.4 |
| 20260505084501 | 13 | 180 | 8.0 | 0.0 | 0.00 | 0.00 | 0.00 | 69 | 1001.4 |
| 20260505083002 | 12 | 180 | 3.2 | 0.0 | 0.00 | 0.00 | 0.00 | 69 | 1001.4 |
| 20260505081502 | 12 | 113 | 12.9 | 0.0 | 0.00 | 0.00 | 0.00 | 70 | 1001.4 |
| 20260505080002 | 12 | 180 | 6.4 | 0.0 | 0.00 | 0.00 | 0.00 | 70 | 1001.4 |
| 20260505073502 | 12 | 180 | 6.4 | 0.0 | 0.00 | 0.00 | 0.00 | 71 | 1001.4 |
| 20260505072002 | 12 | 180 | 4.8 | 0.0 | 0.00 | 0.00 | 0.00 | 70 | 1001.7 |